Location: Palmerston North
(40.3500°S, 175.6170°E)
Time: 17:33:16
(UTC+13:00)

Cosmos 1633 - Pass Details

Date: 24 January 2019
Orbit: 465 x 483 km, 82.5° (Epoch: 23 October)

Event Time Altitude Azimuth Distance (km) Brightness Sun altitude
Rises 21:31:22 0° 166° (SSE) 2,546 6.5 -8.7°
Reaches altitude 10° 21:34:33 10° 135° (SE) 1,659 5.2 -9.2°
Maximum altitude 21:36:11 13° 109° (ESE) 1,503 4.7 -9.5°
Enters shadow 21:37:40 10° 84° (E) 1,629 4.7 -9.7°
